#Datum;Uhrzeit;WR;Pac;DaySum;Status;WR;Pac;DaySum;Status;Pdc1;Udc;Temp;WR;Pac;DaySum;Status;Pdc1;Udc;Temp;WR;Pac;DaySum;Status;Pdc1;Udc;Temp;WR;Pac;DaySum;Status;Pdc1;Pdc2;Udc1;Udc2;Temp;WR;Pac;DaySum;Status;Pdc1;Pdc2;Udc1;Udc2;Temp;WR;Pac;DaySum;Status;Pdc1;Udc;Temp;WR;Pac;DaySum;Status;Pdc1;Udc;Temp;WR;Pac;DaySum;Status;Pdc1;Udc;Temp
05.12.20;23:55:00;1;448;11731;0;2;0;8240;0;0;0;0;3;0;5435;0;0;0;0;4;0;6492;0;0;0;0;5;0;0;0;0;0;0;0;0;6;0;15280;0;0;0;0;0;0;7;0;13731;0;0;0;0;8;0;13523;0;0;0;0;9;0;7198;0;0;0;0
05.12.20;23:50:00;1;439;11692;0;2;0;8240;0;0;0;0;3;0;5435;0;0;0;0;4;0;6492;0;0;0;0;5;0;0;0;0;0;0;0;0;6;0;15280;0;0;0;0;0;0;7;0;13731;0;0;0;0;8;0;13523;0;0;0;0;9;0;7198;0;0;0;0
05.12.20;23:45:00;1;737;11656;0;2;0;8240;0;0;0;0;3;0;5435;0;0;0;0;4;0;6492;0;0;0;0;5;0;0;0;0;0;0;0;0;6;0;15280;0;0;0;0;0;0;7;0;13731;0;0;0;0;8;0;13523;0;0;0;0;9;0;7198;0;0;0;0
05.12.20;23:40:00;1;440;11591;0;2;0;8240;0;0;0;0;3;0;5435;0;0;0;0;4;0;6492;0;0;0;0;5;0;0;0;0;0;0;0;0;6;0;15280;0;0;0;0;0;0;7;0;13731;0;0;0;0;8;0;13523;0;0;0;0;9;0;7198;0;0;0;0
05.12.20;23:35:00;1;482;11553;0;2;0;8240;0;0;0;0;3;0;5435;0;0;0;0;4;0;6492;0;0;0;0;5;0;0;0;0;0;0;0;0;6;0;15280;0;0;0;0;0;0;7;0;13731;0;0;0;0;8;0;13523;0;0;0;0;9;0;7198;0;0;0;0
05.12.20;23:30:00;1;474;11512;0;2;0;8240;0;0;0;0;3;0;5435;0;0;0;0;4;0;6492;0;0;0;0;5;0;0;0;0;0;0;0;0;6;0;15280;0;0;0;0;0;0;7;0;13731;0;0;0;0;8;0;13523;0;0;0;0;9;0;7198;0;0;0;0
05.12.20;23:25:00;1;481;11472;0;2;0;8240;0;0;0;0;3;0;5435;0;0;0;0;4;0;6492;0;0;0;0;5;0;0;0;0;0;0;0;0;6;0;15280;0;0;0;0;0;0;7;0;13731;0;0;0;0;8;0;13523;0;0;0;0;9;0;7198;0;0;0;0
05.12.20;23:20:00;1;475;11432;0;2;0;8240;0;0;0;0;3;0;5435;0;0;0;0;4;0;6492;0;0;0;0;5;0;0;0;0;0;0;0;0;6;0;15280;0;0;0;0;0;0;7;0;13731;0;0;0;0;8;0;13523;0;0;0;0;9;0;7198;0;0;0;0
05.12.20;23:15:00;1;481;11393;0;2;0;8240;0;0;0;0;3;0;5435;0;0;0;0;4;0;6492;0;0;0;0;5;0;0;0;0;0;0;0;0;6;0;15280;0;0;0;0;0;0;7;0;13731;0;0;0;0;8;0;13523;0;0;0;0;9;0;7198;0;0;0;0
05.12.20;23:10:00;1;469;11352;0;2;0;8240;0;0;0;0;3;0;5435;0;0;0;0;4;0;6492;0;0;0;0;5;0;0;0;0;0;0;0;0;6;0;15280;0;0;0;0;0;0;7;0;13731;0;0;0;0;8;0;13523;0;0;0;0;9;0;7198;0;0;0;0
05.12.20;23:05:00;1;451;11313;0;2;0;8240;0;0;0;0;3;0;5435;0;0;0;0;4;0;6492;0;0;0;0;5;0;0;0;0;0;0;0;0;6;0;15280;0;0;0;0;0;0;7;0;13731;0;0;0;0;8;0;13523;0;0;0;0;9;0;7198;0;0;0;0
05.12.20;23:00:00;1;440;11274;0;2;0;8240;0;0;0;0;3;0;5435;0;0;0;0;4;0;6492;0;0;0;0;5;0;0;0;0;0;0;0;0;6;0;15280;0;0;0;0;0;0;7;0;13731;0;0;0;0;8;0;13523;0;0;0;0;9;0;7198;0;0;0;0
05.12.20;22:55:00;1;478;11236;0;2;0;8240;0;0;0;0;3;0;5435;0;0;0;0;4;0;6492;0;0;0;0;5;0;0;0;0;0;0;0;0;6;0;15280;2;0;0;0;0;0;7;0;13731;0;0;0;0;8;0;13523;0;0;0;0;9;0;7198;0;0;0;0
05.12.20;22:50:00;1;453;11197;0;2;0;8240;0;0;0;0;3;0;5435;0;0;0;0;4;0;6492;0;0;0;0;5;0;0;0;0;0;0;0;0;6;0;15280;2;0;0;0;0;0;7;0;13731;0;0;0;0;8;0;13523;0;0;0;0;9;0;7198;0;0;0;0
05.12.20;22:45:00;1;489;11160;0;2;0;8240;0;0;0;0;3;0;5435;0;0;0;0;4;0;6492;0;0;0;0;5;0;0;0;0;0;0;0;0;6;0;15280;2;0;0;0;0;0;7;0;13731;0;0;0;0;8;0;13523;0;0;0;0;9;0;7198;0;0;0;0
05.12.20;22:40:00;1;367;11119;0;2;0;8240;0;0;0;0;3;0;5435;0;0;0;0;4;0;6492;0;0;0;0;5;0;0;0;0;0;0;0;0;6;0;15280;2;0;0;0;0;0;7;0;13731;0;0;0;0;8;0;13523;0;0;0;0;9;0;7198;0;0;0;0
05.12.20;22:35:00;1;374;11079;0;2;0;8240;0;0;0;0;3;0;5435;0;0;0;0;4;0;6492;0;0;0;0;5;0;0;0;0;0;0;0;0;6;0;15280;2;0;0;0;0;0;7;0;13731;0;0;0;0;8;0;13523;0;0;0;0;9;0;7198;0;0;0;0
05.12.20;22:30:00;1;385;11048;0;2;0;8240;0;0;0;0;3;0;5435;0;0;0;0;4;0;6492;0;0;0;0;5;0;0;0;0;0;0;0;0;6;0;15280;2;0;0;0;0;0;7;0;13731;0;0;0;0;8;0;13523;0;0;0;0;9;0;7198;0;0;0;0
05.12.20;22:25:00;1;502;10998;0;2;0;8240;0;0;0;0;3;0;5435;0;0;0;0;4;0;6492;0;0;0;0;5;0;0;0;0;0;0;0;0;6;0;15280;2;0;0;0;0;0;7;0;13731;0;0;0;0;8;0;13523;0;0;0;0;9;0;7198;0;0;0;0
05.12.20;22:20:00;1;392;10958;0;2;0;8240;0;0;0;0;3;0;5435;0;0;0;0;4;0;6492;0;0;0;0;5;0;0;0;0;0;0;0;0;6;0;15280;2;0;0;0;0;0;7;0;13731;0;0;0;0;8;0;13523;0;0;0;0;9;0;7198;0;0;0;0
05.12.20;22:15:00;1;278;10929;0;2;0;8240;0;0;0;0;3;0;5435;0;0;0;0;4;0;6492;0;0;0;0;5;0;0;0;0;0;0;0;0;6;0;15280;2;0;0;0;0;0;7;0;13731;0;0;0;0;8;0;13523;0;0;0;0;9;0;7198;0;0;0;0
05.12.20;22:10:00;1;278;10906;0;2;0;8240;0;0;0;0;3;0;5435;0;0;0;0;4;0;6492;0;0;0;0;5;0;0;0;0;0;0;0;0;6;0;15280;2;0;0;0;0;0;7;0;13731;0;0;0;0;8;0;13523;0;0;0;0;9;0;7198;0;0;0;0
05.12.20;22:05:00;1;275;10883;0;2;0;8240;0;0;0;0;3;0;5435;0;0;0;0;4;0;6492;0;0;0;0;5;0;0;0;0;0;0;0;0;6;0;15280;2;0;0;0;0;0;7;0;13731;0;0;0;0;8;0;13523;0;0;0;0;9;0;7198;0;0;0;0
05.12.20;22:00:00;1;312;10860;0;2;0;8240;0;0;0;0;3;0;5435;0;0;0;0;4;0;6492;0;0;0;0;5;0;0;0;0;0;0;0;0;6;0;15280;2;0;0;0;0;0;7;0;13731;0;0;0;0;8;0;13523;0;0;0;0;9;0;7198;0;0;0;0
05.12.20;21:55:00;1;293;10835;0;2;0;8240;0;0;0;0;3;0;5435;0;0;0;0;4;0;6492;0;0;0;0;5;0;0;0;0;0;0;0;0;6;0;15280;2;0;0;0;0;0;7;0;13731;0;0;0;0;8;0;13523;0;0;0;0;9;0;7198;0;0;0;0
05.12.20;21:50:00;1;280;10809;0;2;0;8240;0;0;0;0;3;0;5435;0;0;0;0;4;0;6492;0;0;0;0;5;0;0;0;0;0;0;0;0;6;0;15280;2;0;0;0;0;0;7;0;13731;0;0;0;0;8;0;13523;0;0;0;0;9;0;7198;0;0;0;0
05.12.20;21:45:00;1;280;10786;0;2;0;8240;0;0;0;0;3;0;5435;0;0;0;0;4;0;6492;0;0;0;0;5;0;0;0;0;0;0;0;0;6;0;15280;2;0;0;0;0;0;7;0;13731;0;0;0;0;8;0;13523;0;0;0;0;9;0;7198;0;0;0;0
05.12.20;21:40:00;1;315;10763;0;2;0;8240;0;0;0;0;3;0;5435;0;0;0;0;4;0;6492;0;0;0;0;5;0;0;0;0;0;0;0;0;6;0;15280;2;0;0;0;0;0;7;0;13731;0;0;0;0;8;0;13523;0;0;0;0;9;0;7198;0;0;0;0
05.12.20;21:35:00;1;374;10737;0;2;0;8240;0;0;0;0;3;0;5435;0;0;0;0;4;0;6492;0;0;0;0;5;0;0;0;0;0;0;0;0;6;0;15280;2;0;0;0;0;0;7;0;13731;0;0;0;0;8;0;13523;0;0;0;0;9;0;7198;0;0;0;0
05.12.20;21:30:00;1;382;10707;0;2;0;8240;0;0;0;0;3;0;5435;0;0;0;0;4;0;6492;0;0;0;0;5;0;0;0;0;0;0;0;0;6;0;15280;2;0;0;0;0;0;7;0;13731;0;0;0;0;8;0;13523;0;0;0;0;9;0;7198;0;0;0;0
05.12.20;21:25:00;1;357;10675;0;2;0;8240;0;0;0;0;3;0;5435;0;0;0;0;4;0;6492;0;0;0;0;5;0;0;0;0;0;0;0;0;6;0;15280;2;0;0;0;0;0;7;0;13731;0;0;0;0;8;0;13523;0;0;0;0;9;0;7198;0;0;0;0
05.12.20;21:20:00;1;278;10645;0;2;0;8240;0;0;0;0;3;0;5435;0;0;0;0;4;0;6492;0;0;0;0;5;0;0;0;0;0;0;0;0;6;0;15280;2;0;0;0;0;0;7;0;13731;0;0;0;0;8;0;13523;0;0;0;0;9;0;7198;0;0;0;0
05.12.20;21:15:00;1;983;10621;0;2;0;8240;0;0;0;0;3;0;5435;0;0;0;0;4;0;6492;0;0;0;0;5;0;0;0;0;0;0;0;0;6;0;15280;2;0;0;0;0;0;7;0;13731;0;0;0;0;8;0;13523;0;0;0;0;9;0;7198;0;0;0;0
05.12.20;21:10:00;1;394;10562;0;2;0;8240;0;0;0;0;3;0;5435;0;0;0;0;4;0;6492;0;0;0;0;5;0;0;0;0;0;0;0;0;6;0;15280;2;0;0;0;0;0;7;0;13731;0;0;0;0;8;0;13523;0;0;0;0;9;0;7198;0;0;0;0
05.12.20;21:05:00;1;342;10529;0;2;0;8240;0;0;0;0;3;0;5435;0;0;0;0;4;0;6492;0;0;0;0;5;0;0;0;0;0;0;0;0;6;0;15280;2;0;0;0;0;0;7;0;13731;0;0;0;0;8;0;13523;0;0;0;0;9;0;7198;0;0;0;0
05.12.20;21:00:00;1;278;10502;0;2;0;8240;0;0;0;0;3;0;5435;0;0;0;0;4;0;6492;0;0;0;0;5;0;0;0;0;0;0;0;0;6;0;15280;2;0;0;0;0;0;7;0;13731;0;0;0;0;8;0;13523;0;0;0;0;9;0;7198;0;0;0;0
05.12.20;20:55:00;1;314;10478;0;2;0;8240;0;0;0;0;3;0;5435;0;0;0;0;4;0;6492;0;0;0;0;5;0;0;0;0;0;0;0;0;6;0;15280;2;0;0;0;0;0;7;0;13731;0;0;0;0;8;0;13523;0;0;0;0;9;0;7198;0;0;0;0
05.12.20;20:50:00;1;334;10453;0;2;0;8240;0;0;0;0;3;0;5435;0;0;0;0;4;0;6492;0;0;0;0;5;0;0;0;0;0;0;0;0;6;0;15280;2;0;0;0;0;0;7;0;13731;0;0;0;0;8;0;13523;0;0;0;0;9;0;7198;0;0;0;0
05.12.20;20:45:00;1;336;10425;0;2;0;8240;0;0;0;0;3;0;5435;0;0;0;0;4;0;6492;0;0;0;0;5;0;0;0;0;0;0;0;0;6;0;15280;2;0;0;0;0;0;7;0;13731;0;0;0;0;8;0;13523;0;0;0;0;9;0;7198;0;0;0;0
05.12.20;20:40:00;1;320;10398;0;2;0;8240;0;0;0;0;3;0;5435;0;0;0;0;4;0;6492;0;0;0;0;5;0;0;0;0;0;0;0;0;6;0;15280;2;0;0;0;0;0;7;0;13731;0;0;0;0;8;0;13523;0;0;0;0;9;0;7198;0;0;0;0
05.12.20;20:35:00;1;320;10371;0;2;0;8240;0;0;0;0;3;0;5435;0;0;0;0;4;0;6492;0;0;0;0;5;0;0;0;0;0;0;0;0;6;0;15280;2;0;0;0;0;0;7;0;13731;0;0;0;0;8;0;13523;0;0;0;0;9;0;7198;0;0;0;0
05.12.20;20:30:00;1;322;10344;0;2;0;8240;0;0;0;0;3;0;5435;0;0;0;0;4;0;6492;0;0;0;0;5;0;0;0;0;0;0;0;0;6;0;15280;2;0;0;0;0;0;7;0;13731;0;0;0;0;8;0;13523;0;0;0;0;9;0;7198;0;0;0;0
05.12.20;20:25:00;1;312;10317;0;2;0;8240;0;0;0;0;3;0;5435;0;0;0;0;4;0;6492;0;0;0;0;5;0;0;0;0;0;0;0;0;6;0;15280;2;0;0;0;0;0;7;0;13731;0;0;0;0;8;0;13523;0;0;0;0;9;0;7198;0;0;0;0
05.12.20;20:20:00;1;294;10290;0;2;0;8240;0;0;0;0;3;0;5435;0;0;0;0;4;0;6492;0;0;0;0;5;0;0;0;0;0;0;0;0;6;0;15280;2;0;0;0;0;0;7;0;13731;0;0;0;0;8;0;13523;0;0;0;0;9;0;7198;0;0;0;0
05.12.20;20:15:00;1;277;10265;0;2;0;8240;0;0;0;0;3;0;5435;0;0;0;0;4;0;6492;0;0;0;0;5;0;0;0;0;0;0;0;0;6;0;15280;2;0;0;0;0;0;7;0;13731;0;0;0;0;8;0;13523;0;0;0;0;9;0;7198;0;0;0;0
05.12.20;20:10:00;1;277;10242;0;2;0;8240;0;0;0;0;3;0;5435;0;0;0;0;4;0;6492;0;0;0;0;5;0;0;0;0;0;0;0;0;6;0;15280;2;0;0;0;0;0;7;0;13731;0;0;0;0;8;0;13523;0;0;0;0;9;0;7198;0;0;0;0
05.12.20;20:05:00;1;277;10218;0;2;0;8240;0;0;0;0;3;0;5435;0;0;0;0;4;0;6492;0;0;0;0;5;0;0;0;0;0;0;0;0;6;0;15280;2;0;0;0;0;0;7;0;13731;0;0;0;0;8;0;13523;0;0;0;0;9;0;7198;0;0;0;0
05.12.20;20:00:00;1;320;10195;0;2;0;8240;0;0;0;0;3;0;5435;0;0;0;0;4;0;6492;0;0;0;0;5;0;0;0;0;0;0;0;0;6;0;15280;2;0;0;0;0;0;7;0;13731;0;0;0;0;8;0;13523;0;0;0;0;9;0;7198;0;0;0;0
05.12.20;19:55:00;1;302;10169;0;2;0;8240;0;0;0;0;3;0;5435;0;0;0;0;4;0;6492;0;0;0;0;5;0;0;0;0;0;0;0;0;6;0;15280;2;0;0;0;0;0;7;0;13731;0;0;0;0;8;0;13523;0;0;0;0;9;0;7198;0;0;0;0
05.12.20;19:50:00;1;337;10144;0;2;0;8240;0;0;0;0;3;0;5435;0;0;0;0;4;0;6492;0;0;0;0;5;0;0;0;0;0;0;0;0;6;0;15280;2;0;0;0;0;0;7;0;13731;0;0;0;0;8;0;13523;0;0;0;0;9;0;7198;0;0;0;0
05.12.20;19:45:00;1;375;10116;0;2;0;8240;0;0;0;0;3;0;5435;0;0;0;0;4;0;6492;0;0;0;0;5;0;0;0;0;0;0;0;0;6;0;15280;2;0;0;0;0;0;7;0;13731;0;0;0;0;8;0;13523;0;0;0;0;9;0;7198;0;0;0;0
05.12.20;19:40:00;1;373;10084;0;2;0;8240;0;0;0;0;3;0;5435;0;0;0;0;4;0;6492;0;0;0;0;5;0;0;0;0;0;0;0;0;6;0;15280;2;0;0;0;0;0;7;0;13731;0;0;0;0;8;0;13523;0;0;0;0;9;0;7198;0;0;0;0
05.12.20;19:35:00;1;574;10053;0;2;0;8240;0;0;0;0;3;0;5435;0;0;0;0;4;0;6492;0;0;0;0;5;0;0;0;0;0;0;0;0;6;0;15280;2;0;0;0;0;0;7;0;13731;0;0;0;0;8;0;13523;0;0;0;0;9;0;7198;0;0;0;0
05.12.20;19:30:00;1;555;10002;0;2;0;8240;0;0;0;0;3;0;5435;0;0;0;0;4;0;6492;0;0;0;0;5;0;0;0;0;0;0;0;0;6;0;15280;2;0;0;0;0;0;7;0;13731;0;0;0;0;8;0;13523;0;0;0;0;9;0;7198;0;0;0;0
05.12.20;19:25:00;1;275;9958;0;2;0;8240;0;0;0;0;3;0;5435;0;0;0;0;4;0;6492;0;0;0;0;5;0;0;0;0;0;0;0;0;6;0;15280;2;0;0;0;0;0;7;0;13731;0;0;0;0;8;0;13523;0;0;0;0;9;0;7198;0;0;0;0
05.12.20;19:20:00;1;276;9935;0;2;0;8240;0;0;0;0;3;0;5435;0;0;0;0;4;0;6492;0;0;0;0;5;0;0;0;0;0;0;0;0;6;0;15280;2;0;0;0;0;0;7;0;13731;0;0;0;0;8;0;13523;0;0;0;0;9;0;7198;0;0;0;0
05.12.20;19:15:00;1;309;9912;0;2;0;8240;0;0;0;0;3;0;5435;0;0;0;0;4;0;6492;0;0;0;0;5;0;0;0;0;0;0;0;0;6;0;15280;2;0;0;0;0;0;7;0;13731;0;0;0;0;8;0;13523;0;0;0;0;9;0;7198;0;0;0;0
05.12.20;19:10:00;1;283;9887;0;2;0;8240;0;0;0;0;3;0;5435;0;0;0;0;4;0;6492;0;0;0;0;5;0;0;0;0;0;0;0;0;6;0;15280;2;0;0;0;0;0;7;0;13731;0;0;0;0;8;0;13523;0;0;0;0;9;0;7198;0;0;0;0
05.12.20;19:05:00;1;275;9862;0;2;0;8240;0;0;0;0;3;0;5435;0;0;0;0;4;0;6492;0;0;0;0;5;0;0;0;0;0;0;0;0;6;0;15280;2;0;0;0;0;0;7;0;13731;0;0;0;0;8;0;13523;0;0;0;0;9;0;7198;0;0;0;0
05.12.20;19:00:00;1;275;9839;0;2;0;8240;0;0;0;0;3;0;5435;0;0;0;0;4;0;6492;0;0;0;0;5;0;0;0;0;0;0;0;0;6;0;15280;2;0;0;0;0;0;7;0;13731;0;0;0;0;8;0;13523;0;0;0;0;9;0;7198;0;0;0;0
05.12.20;18:55:00;1;276;9816;0;2;0;8240;0;0;0;0;3;0;5435;0;0;0;0;4;0;6492;0;0;0;0;5;0;0;0;0;0;0;0;0;6;0;15280;2;0;0;0;0;0;7;0;13731;0;0;0;0;8;0;13523;0;0;0;0;9;0;7198;0;0;0;0
05.12.20;18:50:00;1;345;9793;0;2;0;8240;0;0;0;0;3;0;5435;0;0;0;0;4;0;6492;0;0;0;0;5;0;0;0;0;0;0;0;0;6;0;15280;2;0;0;0;0;0;7;0;13731;0;0;0;0;8;0;13523;0;0;0;0;9;0;7198;0;0;0;0
05.12.20;18:45:00;1;317;9762;0;2;0;8240;0;0;0;0;3;0;5435;0;0;0;0;4;0;6492;0;0;0;0;5;0;0;0;0;0;0;0;0;6;0;15280;2;0;0;0;0;0;7;0;13731;0;0;0;0;8;0;13523;0;0;0;0;9;0;7198;0;0;0;0
05.12.20;18:40:00;1;322;9736;0;2;0;8240;0;0;0;0;3;0;5435;0;0;0;0;4;0;6492;0;0;0;0;5;0;0;0;0;0;0;0;0;6;0;15280;2;0;0;0;0;0;7;0;13731;0;0;0;0;8;0;13523;0;0;0;0;9;0;7198;0;0;0;0
05.12.20;18:35:00;1;300;9709;0;2;0;8240;0;0;0;0;3;0;5435;0;0;0;0;4;0;6492;0;0;0;0;5;0;0;0;0;0;0;0;0;6;0;15280;2;0;0;0;0;0;7;0;13731;0;0;0;0;8;0;13523;0;0;0;0;9;0;7198;0;0;0;0
05.12.20;18:30:00;1;357;9683;0;2;0;8240;0;0;0;0;3;0;5435;0;0;0;0;4;0;6492;0;0;0;0;5;0;0;0;0;0;0;0;0;6;0;15280;2;0;0;0;0;0;7;0;13731;0;0;0;0;8;0;13523;0;0;0;0;9;0;7198;0;0;0;0
05.12.20;18:25:00;1;348;9654;0;2;0;8240;0;0;0;0;3;0;5435;0;0;0;0;4;0;6492;0;0;0;0;5;0;0;0;0;0;0;0;0;6;0;15280;2;0;0;0;0;0;7;0;13731;0;0;0;0;8;0;13523;0;0;0;0;9;0;7198;0;0;0;0
05.12.20;18:20:00;1;339;9624;0;2;0;8240;0;0;0;0;3;0;5435;0;0;0;0;4;0;6492;0;0;0;0;5;0;0;0;0;0;0;0;0;6;0;15280;2;0;0;0;0;0;7;0;13731;0;0;0;0;8;0;13523;0;0;0;0;9;0;7198;0;0;0;0
05.12.20;18:15:00;1;829;9596;0;2;0;8240;0;0;0;0;3;0;5435;0;0;0;0;4;0;6492;0;0;0;0;5;0;0;0;0;0;0;0;0;6;0;15280;2;0;0;0;0;0;7;0;13731;0;0;0;0;8;0;13523;0;0;0;0;9;0;7198;0;0;0;0
05.12.20;18:10:00;1;330;9537;0;2;0;8240;0;0;0;0;3;0;5435;0;0;0;0;4;0;6492;0;0;0;0;5;0;0;0;0;0;0;0;0;6;0;15280;2;0;0;0;0;0;7;0;13731;0;0;0;0;8;0;13523;0;0;0;0;9;0;7198;0;0;0;0
05.12.20;18:05:00;1;366;9509;0;2;0;8240;0;0;0;0;3;0;5435;0;0;0;0;4;0;6492;0;0;0;0;5;0;0;0;0;0;0;0;0;6;0;15280;2;0;0;0;0;0;7;0;13731;0;0;0;0;8;0;13523;0;0;0;0;9;0;7198;0;0;0;0
05.12.20;18:00:00;1;289;9481;0;2;0;8240;0;0;0;0;3;0;5435;0;0;0;0;4;0;6492;0;0;0;0;5;0;0;0;0;0;0;0;0;6;0;15280;2;0;0;0;0;0;7;0;13731;0;0;0;0;8;0;13523;0;0;0;0;9;0;7198;0;0;0;0
05.12.20;17:55:00;1;321;9457;0;2;0;8240;0;0;0;0;3;0;5435;0;0;0;0;4;0;6492;0;0;0;0;5;0;0;0;0;0;0;0;0;6;0;15280;2;0;0;0;0;0;7;0;13731;0;0;0;0;8;0;13523;0;0;0;0;9;0;7198;0;0;0;0
05.12.20;17:50:00;1;332;9430;0;2;0;8240;0;0;0;0;3;0;5435;0;0;0;0;4;0;6492;0;0;0;0;5;0;0;0;0;0;0;0;0;6;0;15280;2;0;0;0;0;0;7;0;13731;0;0;0;0;8;0;13523;0;0;0;0;9;0;7198;0;0;0;0
05.12.20;17:45:00;1;367;9402;0;2;0;8240;0;0;0;0;3;0;5435;0;0;0;0;4;0;6492;0;0;0;0;5;0;0;0;0;0;0;0;0;6;0;15280;2;0;0;0;0;0;7;0;13731;0;0;0;0;8;0;13523;0;0;0;0;9;0;7198;0;0;0;0
05.12.20;17:40:00;1;331;9372;0;2;0;8240;0;0;0;0;3;0;5435;0;0;0;0;4;0;6492;0;0;0;0;5;0;0;0;0;0;0;0;0;6;0;15280;2;0;0;0;0;0;7;0;13731;0;0;0;0;8;0;13523;0;0;0;0;9;0;7198;0;0;0;0
05.12.20;17:35:00;1;289;9343;0;2;0;8240;0;0;0;0;3;0;5435;0;0;0;0;4;0;6492;0;0;0;0;5;0;0;0;0;0;0;0;0;6;0;15280;2;0;0;0;0;0;7;0;13731;0;0;0;0;8;0;13523;0;0;0;0;9;0;7198;0;0;0;0
05.12.20;17:30:00;1;320;9318;0;2;0;8240;0;0;0;0;3;0;5435;0;0;0;0;4;0;6492;0;0;0;0;5;0;0;0;0;0;0;0;0;6;0;15280;2;0;0;0;0;0;7;0;13731;0;0;0;0;8;0;13523;0;0;0;0;9;0;7198;0;0;0;0
05.12.20;17:25:00;1;462;9292;0;2;0;8240;0;0;0;0;3;0;5435;0;0;0;0;4;0;6492;0;0;0;0;5;0;0;0;0;0;0;0;0;6;0;15280;2;0;0;0;0;0;7;0;13731;0;0;0;0;8;0;13523;0;0;0;0;9;0;7198;0;0;0;0
05.12.20;17:20:00;1;724;9254;0;2;0;8240;0;0;0;0;3;0;5435;0;0;0;0;4;0;6492;0;0;0;0;5;0;0;0;0;0;0;0;0;6;0;15280;2;0;0;0;0;0;7;0;13731;0;0;0;0;8;0;13523;0;0;0;0;9;0;7198;0;0;0;0
05.12.20;17:15:00;1;698;9194;0;2;0;8240;0;0;0;0;3;0;5435;0;0;0;0;4;0;6492;0;0;0;0;5;0;0;0;0;0;0;0;0;6;0;15280;2;0;0;0;0;0;7;0;13731;0;0;0;0;8;0;13523;0;0;0;0;9;0;7198;0;0;0;0
05.12.20;17:10:00;1;738;9136;0;2;0;8240;0;0;0;0;3;0;5435;0;0;0;0;4;0;6492;0;0;0;0;5;0;0;0;0;0;0;0;0;6;0;15280;2;0;0;0;0;0;7;0;13731;0;0;0;0;8;0;13523;0;0;0;0;9;0;7198;0;0;0;0
05.12.20;17:05:00;1;656;9077;0;2;0;8240;0;0;0;0;3;0;5435;0;0;0;0;4;0;6492;0;0;0;0;5;0;0;0;0;0;0;0;0;6;0;15280;2;0;0;0;0;0;7;0;13731;0;0;0;0;8;0;13523;0;0;0;0;9;0;7198;0;0;0;0
05.12.20;17:00:00;1;590;9022;0;2;0;8240;0;0;0;0;3;0;5435;0;0;0;0;4;0;6492;0;0;0;0;5;0;0;0;0;0;0;0;0;6;0;15280;2;0;0;0;0;0;7;0;13731;0;0;0;0;8;0;13523;0;0;0;0;9;0;7198;0;0;0;0
05.12.20;16:55:00;1;722;8971;0;2;0;8240;0;0;0;0;3;0;5435;0;0;0;0;4;0;6492;0;0;0;0;5;0;0;0;0;0;0;0;0;6;0;15280;2;0;0;0;0;0;7;0;13731;0;0;0;0;8;0;13523;0;0;0;0;9;0;7198;0;0;0;0
05.12.20;16:50:00;1;429;8909;0;2;0;8240;0;0;0;0;3;0;5435;0;0;0;0;4;0;6492;0;0;0;0;5;0;0;0;0;0;0;0;0;6;0;15280;2;0;0;0;0;0;7;0;13731;0;0;0;0;8;0;13523;0;0;0;0;9;0;7198;0;0;0;0
05.12.20;16:45:00;1;385;8870;0;2;0;8240;0;0;0;0;3;0;5435;0;0;0;0;4;0;6492;0;0;0;0;5;0;0;0;0;0;0;0;0;6;0;15280;2;0;0;0;0;0;7;0;13731;0;0;0;0;8;0;13523;0;0;0;0;9;0;7198;0;0;0;0
05.12.20;16:40:00;1;291;8838;0;2;0;8240;0;0;0;0;3;0;5435;0;0;71;3;4;0;6492;0;0;0;0;5;0;0;0;0;0;0;0;0;6;0;15280;2;0;0;0;0;0;7;0;13731;0;0;0;0;8;0;13523;0;0;0;0;9;0;7198;0;0;0;0
05.12.20;16:35:00;1;298;8814;0;2;0;8240;0;0;239;8;3;0;5435;6;0;297;13;4;0;6492;0;0;0;0;5;0;0;0;0;0;0;0;0;6;0;15280;2;0;0;0;0;0;7;0;13731;0;0;0;0;8;0;13523;0;0;0;0;9;0;7198;0;0;0;0
05.12.20;16:30:00;1;257;8789;0;2;0;8240;6;0;303;10;3;0;5435;6;0;350;14;4;0;6492;0;0;62;9;5;0;0;0;0;0;0;0;0;6;0;15280;2;0;0;0;0;0;7;0;13731;0;0;0;0;8;0;13523;0;0;0;0;9;0;7198;0;0;0;0
05.12.20;16:25:00;1;253;8768;0;2;0;8240;6;0;339;10;3;0;5435;6;1;406;14;4;0;6492;1;0;106;11;5;0;0;0;0;0;0;0;0;6;0;15280;2;3;1;89;149;12;7;0;13731;0;0;84;5;8;0;13523;0;0;86;5;9;0;7198;0;0;175;7
05.12.20;16:20:00;1;253;8746;0;2;0;8240;6;0;362;11;3;0;5435;6;1;439;14;4;0;6492;1;0;138;12;5;0;0;0;0;0;0;0;0;6;0;15280;23;4;2;180;479;21;7;0;13731;6;0;292;15;8;0;13523;6;0;296;15;9;0;7198;6;0;306;11
05.12.20;16:15:00;1;292;8725;0;2;0;8240;6;0;378;11;3;0;5435;6;2;444;14;4;0;6492;1;0;168;12;5;0;0;0;0;0;0;0;0;6;0;15280;23;5;3;181;533;22;7;0;13731;6;0;347;16;8;0;13523;6;0;352;15;9;0;7198;6;0;364;11
05.12.20;16:10:00;1;253;8700;0;2;0;8240;6;0;380;11;3;1;5435;6;1;452;14;4;0;6492;1;0;172;12;5;0;0;0;0;0;0;0;0;6;0;15280;23;2;7;369;362;22;7;0;13731;6;0;363;16;8;0;13523;6;0;368;15;9;0;7198;6;0;317;9
05.12.20;16:05:00;1;286;8679;0;2;0;8240;6;0;379;12;3;1;5435;3;3;439;15;4;0;6492;1;0;170;13;5;0;0;0;0;0;0;0;0;6;0;15280;23;0;9;558;180;22;7;0;13731;6;0;354;16;8;0;13523;6;0;356;16;9;0;7198;6;0;358;12
05.12.20;16:00:00;1;295;8655;0;2;0;8240;6;0;386;12;3;0;5435;6;3;454;15;4;0;6492;1;0;186;13;5;0;0;0;0;0;0;0;0;6;0;15280;23;4;7;337;405;23;7;0;13731;6;0;377;17;8;0;13523;6;0;378;16;9;0;7198;6;0;387;12
05.12.20;15:55:00;1;358;8631;0;2;0;8240;6;0;396;12;3;1;5435;6;3;484;15;4;0;6492;1;0;208;14;5;0;0;0;0;0;0;0;0;6;0;15280;23;5;5;386;571;23;7;0;13731;6;0;411;17;8;0;13523;6;0;403;16;9;0;7198;4;1;408;12
05.12.20;15:50:00;1;359;8603;0;2;0;8240;6;0;406;13;3;1;5435;6;4;497;15;4;0;6492;3;0;209;14;5;0;0;0;0;0;0;0;0;6;0;15280;8;2;6;416;583;24;7;0;13731;6;1;429;17;8;0;13523;6;1;432;17;9;0;7198;6;1;463;13
05.12.20;15:45:00;1;288;8574;0;2;0;8240;6;0;411;13;3;0;5435;6;4;504;16;4;0;6492;3;0;217;14;5;0;0;0;0;0;0;0;0;6;43;15280;1;17;27;470;475;25;7;3;13731;3;5;428;18;8;0;13523;6;1;449;17;9;2;7198;6;4;465;13
05.12.20;15:40:00;1;250;8549;0;2;23;8240;6;39;394;14;3;0;5435;6;5;523;16;4;5;6492;3;5;199;15;5;0;0;0;0;0;0;0;0;6;83;15277;4;35;45;443;452;25;7;6;13731;6;11;467;18;8;2;13523;4;4;474;18;9;0;7198;6;4;519;13
05.12.20;15:35:00;1;343;8528;0;2;70;8238;4;103;371;15;3;13;5435;4;25;523;16;4;34;6492;3;36;198;15;5;0;0;0;0;0;0;0;0;6;122;15269;4;49;62;443;452;25;7;40;13730;4;76;399;18;8;39;13523;4;71;402;18;9;5;7198;6;13;514;14
05.12.20;15:30:00;1;339;8501;0;2;159;8232;4;196;373;15;3;91;5433;4;132;482;17;4;98;6489;3;102;219;15;5;0;0;0;0;0;0;0;0;6;197;15259;4;96;102;443;453;25;7;147;13727;4;188;442;19;8;143;13519;4;182;438;18;9;62;7197;6;86;511;14
05.12.20;15:25:00;1;313;8473;0;2;539;8219;4;586;382;16;3;278;5426;4;319;442;17;4;268;6481;5;279;240;16;5;0;0;0;0;0;0;0;0;6;592;15241;4;297;314;577;562;25;7;571;13714;4;612;458;19;8;431;13507;4;477;449;18;9;144;7192;4;182;550;15
05.12.20;15:20:00;1;262;8447;0;2;776;8177;4;833;398;16;3;391;5404;4;439;485;18;4;444;6460;5;462;250;16;5;0;0;0;0;0;0;0;0;6;1015;15190;4;511;523;592;573;26;7;1113;13670;4;1171;471;19;8;797;13474;4;853;459;18;9;276;7181;4;318;559;15
05.12.20;15:15:00;1;280;8425;0;2;1104;8111;4;1171;398;16;3;500;5371;4;558;513;18;4;481;6422;5;501;250;16;5;0;0;0;0;0;0;0;0;6;1242;15111;4;618;608;610;578;26;7;1603;13576;4;1693;488;19;8;1360;13407;4;1431;457;19;9;320;7157;4;366;558;16
05.12.20;15:10:00;1;326;8402;0;2;446;8021;4;494;393;16;3;258;5330;4;302;523;18;4;303;6382;5;316;242;16;5;0;0;0;0;0;0;0;0;6;637;15006;4;314;327;573;563;26;7;616;13450;4;664;466;19;8;467;13284;0;500;379;15;9;228;7131;4;265;543;16
05.12.20;15:05:00;1;312;8374;0;2;377;7983;4;425;404;17;3;234;5308;4;277;507;18;4;295;6357;5;307;235;16;5;0;0;0;0;0;0;0;0;6;524;14956;4;247;256;572;558;26;7;423;13399;4;467;469;20;8;409;13247;4;453;468;19;9;204;7112;4;239;515;16
05.12.20;15:00:00;1;293;8347;0;2;435;7953;4;483;400;17;3;269;5290;4;314;515;18;4;342;6333;5;357;236;17;5;0;0;0;0;0;0;0;0;6;592;14912;4;296;310;570;568;26;7;515;13363;4;555;455;20;8;500;13213;4;550;467;19;9;258;7095;4;297;518;16
05.12.20;14:55:00;1;318;8322;0;2;569;7916;4;622;402;18;3;354;5267;4;403;509;19;4;424;6305;5;441;238;17;5;0;0;0;0;0;0;0;0;6;729;14862;4;366;366;586;567;26;7;673;13321;4;721;476;20;8;545;13171;4;588;394;16;9;324;7074;4;366;522;17
05.12.20;14:50:00;1;304;8296;0;2;689;7870;4;747;406;18;3;414;5238;4;469;515;19;4;445;6270;5;463;242;17;5;0;0;0;0;0;0;0;0;6;810;14801;4;396;405;593;569;26;7;804;13266;4;857;462;20;8;779;13118;4;832;474;20;9;365;7047;4;411;523;17
05.12.20;14:45:00;1;252;8271;0;2;712;7810;4;769;405;19;3;444;5203;4;498;518;19;4;472;6233;5;492;241;17;5;0;0;0;0;0;0;0;0;6;892;14728;4;451;460;592;565;26;7;927;13199;4;986;478;21;8;896;13053;4;953;467;20;9;424;7017;4;472;510;18
05.12.20;14:40:00;1;253;8250;0;2;2507;7748;4;2638;427;19;3;1601;5164;4;1704;539;20;4;895;6192;5;932;255;17;5;0;0;0;0;0;0;0;0;6;2726;14653;4;1391;1364;622;598;26;7;3360;13114;4;3515;493;21;8;3225;12972;4;3391;490;20;9;1551;6979;4;1646;495;18
05.12.20;14:35:00;1;270;8228;0;2;1203;7541;4;1279;409;18;3;813;5032;4;881;519;19;4;592;6118;5;617;248;17;5;0;0;0;0;0;0;0;0;6;1586;14412;4;815;792;605;567;26;7;1998;12840;4;2102;485;20;8;2042;12708;4;2145;480;20;9;1046;6852;4;1118;526;17
05.12.20;14:30:00;1;284;8206;0;2;486;7439;4;538;409;18;3;302;4963;4;352;510;19;4;370;6068;5;386;238;17;5;0;0;0;0;0;0;0;0;6;676;14292;4;362;373;593;571;26;7;551;12672;4;609;477;21;8;547;12537;4;599;470;20;9;278;6765;4;316;531;17
05.12.20;14:25:00;1;251;8182;0;2;564;7399;4;617;408;18;3;351;4938;4;404;513;19;4;439;6037;5;457;240;18;5;0;0;0;0;0;0;0;0;6;789;14235;4;386;395;592;571;26;7;651;12626;4;705;491;21;8;646;12492;4;705;482;21;9;328;6742;4;372;535;18
05.12.20;14:20:00;1;251;8161;0;2;521;7352;4;574;408;19;3;330;4909;4;378;509;20;4;408;6001;5;425;236;18;5;0;0;0;0;0;0;0;0;6;736;14170;4;352;370;591;565;27;7;620;12571;4;675;478;22;8;618;12438;4;667;468;21;9;316;6715;4;357;531;18
05.12.20;14:15:00;1;279;8140;0;2;501;7308;4;553;408;20;3;315;4882;4;361;497;20;4;406;5967;5;422;237;18;5;0;0;0;0;0;0;0;0;6;718;14109;4;359;375;589;566;27;7;557;12520;4;605;468;22;8;549;12386;4;599;466;22;9;280;6688;4;321;526;19
05.12.20;14:10:00;1;378;8117;0;2;578;7267;4;634;404;21;3;363;4855;4;412;504;20;4;476;5933;5;496;239;19;5;0;0;0;0;0;0;0;0;6;832;14049;4;421;434;592;570;27;7;654;12474;4;700;458;23;8;642;12341;4;694;455;22;9;333;6665;4;377;518;19
05.12.20;14:05:00;1;355;8085;0;2;946;7218;4;1013;411;22;3;596;4825;4;654;521;21;4;705;5893;5;734;240;19;5;0;0;0;0;0;0;0;0;6;1210;13977;4;637;628;590;564;27;7;1078;12419;4;1157;478;23;8;1081;12287;4;1147;469;23;9;583;6637;4;640;526;20
05.12.20;14:00:00;1;355;8055;0;2;1149;7142;4;1226;417;23;3;741;4777;4;808;530;22;4;918;5836;5;956;243;19;5;0;0;0;0;0;0;0;0;6;1647;13873;4;857;845;601;585;27;7;1517;12332;4;1603;485;24;8;1510;12201;4;1594;481;23;9;806;6591;4;874;533;21
05.12.20;13:55:00;1;332;8026;0;2;1126;7047;4;1204;416;24;3;726;4716;4;793;533;22;4;931;5760;5;970;243;20;5;0;0;0;0;0;0;0;0;6;1693;13737;4;869;863;595;576;28;7;1415;12207;4;1494;472;24;8;1409;12077;4;1487;477;24;9;747;6525;4;812;533;22
05.12.20;13:50:00;1;322;7997;0;2;1681;6953;4;1775;400;24;3;1077;4655;4;1155;509;22;4;1022;5682;5;1064;252;20;5;0;0;0;0;0;0;0;0;6;2261;13596;4;1140;1169;556;570;28;7;2405;12088;4;2514;450;25;8;2436;11958;4;2548;439;24;9;1290;6461;4;1375;505;22
05.12.20;13:45:00;1;264;7969;0;2;1387;6821;4;1472;396;26;3;825;4571;4;894;501;23;4;678;5601;5;706;246;20;5;0;0;0;0;0;0;0;0;6;1860;13415;4;975;956;606;587;28;7;2142;11902;4;2262;477;25;8;2030;11768;4;2135;464;25;9;962;6361;4;1036;517;23
05.12.20;13:40:00;1;255;7947;0;2;2560;6716;4;2698;423;27;3;1770;4508;4;1879;528;24;4;1108;5548;5;1154;247;20;5;0;0;0;0;0;0;0;0;6;3730;13254;4;1915;1879;598;584;28;7;3528;11740;4;3707;479;25;8;3419;11616;4;3584;472;25;9;1938;6289;4;2052;520;24